Simultaneous Nadir Overpasses (SNOs) Predictions

Prediction of SNOs between GOES-15 and METOP-A Satellite Orbit:

Table of predicted SNOs for the next 14.0 days since TLE Epoch: 9/27/2019
Index Date Time (GOES-15) GOES-15 Lat,Lon METOP-A Lat,Lon Distance(km) Time Diff (sec)
1 09/29/2019 05:28:26 0.24,-127.62 0.34,-127.07 62.25 80
2 09/30/2019 17:44:39 -0.26,-127.61 0.66,-131.67 462.74 80
3 10/01/2019 17:26:41 -0.25,-127.57 -0.47,-126.69 101.07 80
4 10/03/2019 05:43:01 0.27,-127.47 -0.61,-131.31 437.64 80
5 10/04/2019 05:25:03 0.25,-127.43 0.52,-126.33 125.53 80
6 10/05/2019 17:41:15 -0.27,-127.40 0.53,-130.91 400.64 80
7 10/06/2019 17:23:16 -0.25,-127.36 -0.59,-125.94 162.63 80
8 10/08/2019 05:39:37 0.27,-127.25 -0.48,-130.55 376.25 80
9 10/09/2019 05:21:37 0.26,-127.20 0.59,-125.56 186.48 80
10 10/10/2019 17:37:50 -0.27,-127.17 0.40,-130.16 340.55 80
11 10/11/2019 17:19:51 -0.26,-127.13 -0.67,-125.17 222.38 80




NCC Satellite Simultaneous Nadir Overpasses (SNOs) Prediction Service
